This is the latest recevied weather packets stored in our database for station/object WA6ODQ-13. If no packets are shown the sender has not sent any weather packets the latest 10 day(s).
| Time | Temp. | Humidity | Pressure | Rain* | Wind** | Luminosity | Snow |
|---|---|---|---|---|---|---|---|
| 1777992975 | 12.78° C | 92% | 1012.4 hPa | 0 mm | - | 48 W/m² | - |
| 1777992673 | 12.78° C | 92% | 1012.4 hPa | 0 mm | - | 38 W/m² | - |
| 1777992370 | 12.78° C | 92% | 1012.4 hPa | 0 mm | - | 25 W/m² | - |
| 1777992068 | 12.78° C | 92% | 1012.4 hPa | 0 mm | - | 22 W/m² | - |
| 1777991765 | 12.78° C | 92% | 1012.3 hPa | 0 mm | - | 24 W/m² | - |
| 1777991462 | 12.78° C | 92% | 1012.4 hPa | 0 mm | - | 20 W/m² | - |
| 1777991159 | 12.78° C | 92% | 1012.2 hPa | 0 mm | - | 24 W/m² | - |
| 1777990857 | 12.78° C | 92% | 1012.2 hPa | 0 mm | - | 25 W/m² | - |
| 1777990554 | 12.78° C | 93% | 1012.2 hPa | 0 mm | - | 19 W/m² | - |
| 1777989947 | 12.22° C | 93% | 1012.1 hPa | 0 mm | - | 15 W/m² | - |
| 1777989644 | 12.22° C | 93% | 1011.9 hPa | 0 mm | - | 12 W/m² | - |
| 1777989340 | 12.22° C | 95% | 1011.9 hPa | 0 mm | - | 11 W/m² | - |
| 1777989037 | 12.22° C | 95% | 1011.9 hPa | 0 mm | - | 10 W/m² | - |
| 1777988733 | 11.67° C | 97% | 1011.8 hPa | 0 mm | - | 8 W/m² | - |
| 1777988430 | 11.67° C | 99% | 1011.9 hPa | 0 mm | - | 8 W/m² | - |
| 1777988127 | 11.67° C | 99% | 1011.9 hPa | 0 mm | - | 5 W/m² | - |
| 1777987823 | 11.67° C | 99% | 1011.8 hPa | 0 mm | - | 4 W/m² | - |
| 1777987520 | 11.11° C | 99% | 1011.8 hPa | 0 mm | - | 2 W/m² | - |
| 1777987217 | 11.11° C | 99% | 1011.7 hPa | 0 mm | - | 2 W/m² | - |
| 1777986914 | 11.11° C | 99% | 1011.9 hPa | 0 mm | - | 1 W/m² | - |
| 1777986612 | 11.11° C | 99% | 1011.8 hPa | 0 mm | - | 1 W/m² | - |
| 1777986309 | 11.11° C | 99% | 1011.7 hPa | 0 mm | - | 0 W/m² | - |
| 1777986008 | 11.11° C | 99% | 1011.6 hPa | 0 mm | - | 0 W/m² | - |
| 1777985704 | 11.11° C | 99% | 1011.7 hPa | 0 mm | - | 0 W/m² | - |
| 1777985400 | 11.11° C | 99% | 1011.8 hPa | 0 mm | - | 0 W/m² | - |
* Rain latest hour (hover to see other rain measurements)
** Current wind speed in m/s (hover to see current wind gust speed)